Weather History for Augusta, GA

Change the Weather History Date:

Monday, October 14, 2013

  Actual Average Record
Temperature  
Mean Temperature 67 °F -  
Max Temperature 70 °F 73 °F 84 °F (2007)
Min Temperature 64 °F 54 °F 41 °F (2006)
Cooling Degree Days 2    
Month to date cooling degree days 89  
Year to date cooling degree days 2035  
Growing Degree Days 17 (Base 50)    
Moisture  
Dew Point 62 °F    
Average Humidity 87    
Maximum Humidity 93    
Minimum Humidity 78    
Precipitation  
Precipitation T in - - ()
Month to date precipitation 0.82  
Year to date precipitation 51.29  
Sea Level Pressure  
Sea Level Pressure 30.16 in    
Wind  
Wind Speed 8 mph (NNE)    
Max Wind Speed 15 mph    
Max Gust Speed 20 mph    
Visibility 10 miles    
Events Rain    
Averages and records for this station are not official NWS values.
T = Trace of Precipitation, MM = Missing Value Source: NWS Daily Summary

Daily Weather History Graph

Daily Weather History Graph

Search for Another Location

Airport:

Trip Planner

Search our weather history database for the weather conditions in past years. The results will help you decide how hot, cold, wet, or windy it might be!

Date:

Astronomy

Oct. 14, 2013 Rise Set
Actual Time 7:32 AM EDT 6:55 PM EDT
Civil Twilight 7:07 AM EDT 7:20 PM EDT
Nautical Twilight 6:38 AM EDT 7:49 PM EDT
Astronomical Twilight 6:09 AM EDT 8:18 PM EDT
Moon 4:13 PM EDT (10/14) 3:00 AM EDT (10/14)
Length of Visible Light 12h 13m
Length of Day
11h 23m
Waxing Gibbous, 79% of the Moon is Illuminated
Oct 14
Waxing Gibbous
Oct 18
Full
Oct 26
Last Quarter
Nov 3
New
Nov 10
First Quarter

Hourly Weather History & Observations

Time (EDT) Temp. Dew Point Humidity Pressure Visibility Wind Dir Wind Speed Gust Speed Precip Events Conditions
12:53 AM 64.9 °F 62.1 °F 90% 30.14 in 10.0 mi North 6.9 mph - N/A   Partly Cloudy
1:53 AM 64.0 °F 62.1 °F 93% 30.14 in 10.0 mi North 5.8 mph - N/A   Clear
2:31 AM 64.4 °F 62.6 °F 94% 30.16 in 10.0 mi North 5.8 mph - N/A   Overcast
2:53 AM 64.0 °F 62.1 °F 93% 30.14 in 10.0 mi North 5.8 mph - N/A   Overcast
3:40 AM 64.4 °F 62.6 °F 94% 30.15 in 10.0 mi North 4.6 mph - N/A   Overcast
3:53 AM 64.9 °F 63.0 °F 93% 30.13 in 10.0 mi NNE 6.9 mph - N/A   Overcast
4:33 AM 66.2 °F 62.6 °F 88% 30.15 in 10.0 mi NNE 8.1 mph - N/A   Overcast
4:53 AM 66.0 °F 62.1 °F 87% 30.14 in 10.0 mi North 5.8 mph - N/A   Overcast
5:53 AM 66.0 °F 62.1 °F 87% 30.14 in 10.0 mi North 4.6 mph - N/A   Overcast
6:53 AM 64.9 °F 62.1 °F 90% 30.15 in 10.0 mi North 5.8 mph - N/A   Overcast
7:06 AM 66.2 °F 62.6 °F 88% 30.16 in 10.0 mi NNE 6.9 mph - N/A   Overcast
7:53 AM 66.0 °F 62.1 °F 87% 30.16 in 10.0 mi NE 10.4 mph 17.3 mph N/A   Overcast
8:53 AM 64.9 °F 61.0 °F 87% 30.19 in 10.0 mi NNE 10.4 mph - N/A   Overcast
9:16 AM 66.2 °F 60.8 °F 83% 30.20 in 10.0 mi North 6.9 mph - N/A   Overcast
9:53 AM 66.9 °F 62.1 °F 84% 30.19 in 10.0 mi NNE 9.2 mph - N/A   Overcast
10:53 AM 66.9 °F 62.1 °F 84% 30.18 in 10.0 mi NNE 9.2 mph - N/A   Overcast
11:53 AM 68.0 °F 62.1 °F 81% 30.18 in 10.0 mi NNE 9.2 mph - N/A   Overcast
12:53 PM 69.1 °F 63.0 °F 81% 30.17 in 10.0 mi North 9.2 mph - N/A   Overcast
1:00 PM 69.8 °F 62.6 °F 78% 30.17 in 10.0 mi NNE 9.2 mph - N/A   Overcast
1:09 PM 68.0 °F 62.6 °F 83% 30.17 in 10.0 mi NNE 6.9 mph - N/A   Overcast
1:16 PM 66.2 °F 62.6 °F 88% 30.17 in 9.0 mi NNE 10.4 mph - 0.00 in Rain Light Rain
1:38 PM 69.8 °F 62.6 °F 78% 30.16 in 10.0 mi NNE 9.2 mph - 0.00 in   Overcast
1:53 PM 69.1 °F 63.0 °F 81% 30.14 in 10.0 mi North 8.1 mph - 0.00 in   Overcast
2:53 PM 70.0 °F 62.1 °F 76% 30.13 in 10.0 mi NNE 10.4 mph - N/A   Overcast
3:53 PM 69.1 °F 62.1 °F 78% 30.13 in 10.0 mi NNE 6.9 mph - N/A   Overcast
4:53 PM 66.9 °F 64.0 °F 90% 30.13 in 6.0 mi North 5.8 mph - 0.00 in Rain Light Rain
5:00 PM 66.2 °F 64.4 °F 94% 30.14 in 10.0 mi NNE 8.1 mph - 0.00 in Rain Light Rain
5:53 PM 68.0 °F 63.0 °F 84% 30.13 in 10.0 mi NNE 8.1 mph - 0.00 in   Overcast
6:53 PM 66.9 °F 63.0 °F 87% 30.14 in 10.0 mi NE 11.5 mph - N/A   Overcast
7:53 PM 66.0 °F 63.0 °F 90% 30.15 in 10.0 mi NNE 5.8 mph - N/A   Overcast
8:53 PM 66.0 °F 63.0 °F 90% 30.16 in 10.0 mi North 8.1 mph - N/A   Overcast
9:53 PM 66.0 °F 63.0 °F 90% 30.16 in 10.0 mi North 9.2 mph - N/A   Overcast
10:53 PM 66.0 °F 62.1 °F 87% 30.16 in 10.0 mi NE 11.5 mph - N/A   Overcast
11:53 PM 66.0 °F 62.1 °F 87% 30.16 in 10.0 mi NE 11.5 mph - N/A   Overcast